MEA247 OLBA-EDDL

Flight info

Callsign MEA247
Flight time N/A
Altitude 34000
Route KAD2D KAD UB15 BALMA DCT VESAR UB545 MUT UL619 OSVEL UQ23 OSDAN UQ26 DIGBO UL615 VADEN Y520 GOL/N0456F360 Y520 LUKOV DCT UTEKA DCT POZ DCT LULIK DCT BABIT DCT SOGMO DCT SASAL DCT PEROL DCT LAMSI DCT RODIS DCT TESDU DCT AMETU T852 TINSA T854 DOMUX DOMU1A
Aircraft A320/M-SDE3FGHIRWY/LB1

Departure

Time 2026-04-30 11:42
Airport Beirut Rafic Hariri International Airport (OLBA)

Arrival

Time N/A
Airport Düsseldorf Airport (EDDL)
Time Latitude Longitude Altitude Speed Heading
2026-04-30 11:17 33.82320 35.49412 62 ft 0 kts 312°
2026-04-30 11:33 33.82292 35.49453 52 ft 4 kts 311°
2026-04-30 11:33 33.82273 35.49473 55 ft 4 kts 349°
2026-04-30 11:33 33.82264 35.49473 60 ft 0 kts 42°
2026-04-30 11:37 33.82271 35.49480 59 ft 5 kts 43°
2026-04-30 11:37 33.82305 35.49510 59 ft 7 kts 33°
2026-04-30 11:37 33.82339 35.49537 54 ft 6 kts 36°
2026-04-30 11:38 33.82353 35.49550 60 ft 6 kts 36°
2026-04-30 11:38 33.82409 35.49597 53 ft 11 kts 35°
2026-04-30 11:38 33.82478 35.49655 60 ft 13 kts 34°
2026-04-30 11:38 33.82555 35.49719 60 ft 14 kts 34°
2026-04-30 11:39 33.82640 35.49793 56 ft 16 kts 38°
2026-04-30 11:39 33.82732 35.49875 58 ft 17 kts 34°
2026-04-30 11:39 33.82834 35.49960 57 ft 19 kts 35°
2026-04-30 11:39 33.82940 35.50050 59 ft 15 kts 34°
2026-04-30 11:40 33.83000 35.50136 61 ft 14 kts 89°
2026-04-30 11:40 33.82929 35.50207 65 ft 15 kts 181°
2026-04-30 11:40 33.82830 35.50157 61 ft 17 kts 216°
2026-04-30 11:40 33.82755 35.50156 57 ft 12 kts 120°
2026-04-30 11:41 33.82711 35.50243 72 ft 12 kts 125°
2026-04-30 11:41 33.82649 35.50273 70 ft 6 kts 205°
2026-04-30 11:41 33.82631 35.50260 68 ft 7 kts 212°
2026-04-30 11:41 33.82416 35.50093 56 ft 70 kts 212°
2026-04-30 11:42 33.81834 35.49644 56 ft 126 kts 212°
2026-04-30 11:42 33.80967 35.48978 54 ft 169 kts 213°
2026-04-30 11:42 33.79944 35.48156 445 ft 176 kts 217°
2026-04-30 11:42 33.79034 35.47207 1010 ft 176 kts 228°
2026-04-30 11:43 33.78169 35.46132 1457 ft 185 kts 228°
2026-04-30 11:43 33.77233 35.44939 1629 ft 207 kts 227°
2026-04-30 11:43 33.76189 35.43617 1831 ft 229 kts 227°
2026-04-30 11:43 33.75029 35.42159 2092 ft 253 kts 227°
2026-04-30 11:44 33.73779 35.40599 2673 ft 262 kts 226°
2026-04-30 11:44 33.72504 35.39019 3503 ft 263 kts 226°
2026-04-30 11:44 33.71224 35.37441 4366 ft 264 kts 225°
2026-04-30 11:44 33.69933 35.35857 5165 ft 266 kts 224°
2026-04-30 11:45 33.68634 35.34264 5953 ft 267 kts 224°
2026-04-30 11:45 33.67347 35.32690 6695 ft 270 kts 224°
2026-04-30 11:45 33.66023 35.31075 7416 ft 272 kts 224°
2026-04-30 11:45 33.64700 35.29442 8134 ft 274 kts 228°
2026-04-30 11:46 33.63796 35.27420 8791 ft 282 kts 256°
2026-04-30 11:46 33.63826 35.25068 9465 ft 289 kts 285°
2026-04-30 11:46 33.64852 35.22982 10109 ft 298 kts 314°
2026-04-30 11:46 33.66564 35.21422 10289 ft 321 kts 325°
2026-04-30 11:47 33.68387 35.19746 10415 ft 339 kts 313°
2026-04-30 11:47 33.69847 35.17510 10594 ft 353 kts 297°
2026-04-30 11:47 33.70778 35.14773 11077 ft 356 kts 284°
2026-04-30 11:47 33.71500 35.11918 11676 ft 359 kts 287°
2026-04-30 11:48 33.72570 35.09201 12239 ft 364 kts 303°
2026-04-30 11:48 33.74332 35.07001 12824 ft 370 kts 323°
2026-04-30 11:48 33.76626 35.05577 13395 ft 374 kts 337°
2026-04-30 11:48 33.79054 35.04426 13972 ft 376 kts 337°
2026-04-30 11:49 33.81501 35.03286 14507 ft 378 kts 338°
2026-04-30 11:49 33.83933 35.02157 15012 ft 381 kts 338°
2026-04-30 11:49 33.86404 35.01005 15526 ft 383 kts 338°
2026-04-30 11:49 33.88900 34.99836 16021 ft 385 kts 337°
2026-04-30 11:50 33.91400 34.98659 16541 ft 387 kts 338°
2026-04-30 11:50 33.93919 34.97467 17069 ft 390 kts 338°
2026-04-30 11:50 33.96448 34.96266 17608 ft 392 kts 337°
2026-04-30 11:50 33.98993 34.95054 18142 ft 395 kts 337°
2026-04-30 11:51 34.01555 34.93837 18647 ft 397 kts 338°
2026-04-30 11:51 34.04131 34.92621 19131 ft 400 kts 338°
2026-04-30 11:51 34.06736 34.91393 19614 ft 402 kts 338°
2026-04-30 11:51 34.09315 34.90175 20079 ft 405 kts 338°
2026-04-30 11:52 34.11946 34.88925 20538 ft 408 kts 337°
2026-04-30 11:52 34.14596 34.87664 20971 ft 411 kts 337°
2026-04-30 11:52 34.17266 34.86394 21395 ft 414 kts 337°
2026-04-30 11:52 34.19952 34.85116 21793 ft 417 kts 337°
2026-04-30 11:53 34.22659 34.83829 22183 ft 419 kts 337°
2026-04-30 11:53 34.25380 34.82538 22567 ft 422 kts 337°
2026-04-30 11:53 34.28119 34.81238 22950 ft 424 kts 337°
2026-04-30 11:53 34.30866 34.79926 23319 ft 427 kts 337°
2026-04-30 11:54 34.33602 34.78615 23673 ft 429 kts 337°
2026-04-30 11:54 34.36386 34.77282 23963 ft 431 kts 337°
2026-04-30 11:54 34.39175 34.75945 24276 ft 433 kts 337°
2026-04-30 11:54 34.41988 34.74602 24580 ft 435 kts 337°
2026-04-30 11:55 34.44803 34.73257 24872 ft 437 kts 337°
2026-04-30 11:55 34.47633 34.71903 25180 ft 438 kts 337°
2026-04-30 11:55 34.50465 34.70545 25480 ft 439 kts 337°
2026-04-30 11:55 34.53313 34.69179 25773 ft 441 kts 337°
2026-04-30 11:56 34.56173 34.67805 26068 ft 442 kts 337°
2026-04-30 11:56 34.59000 34.66447 26359 ft 444 kts 337°
2026-04-30 11:56 34.61878 34.65064 26665 ft 445 kts 337°
2026-04-30 11:56 34.64750 34.63679 27087 ft 444 kts 336°
2026-04-30 11:57 34.67606 34.62301 27514 ft 442 kts 337°
2026-04-30 11:57 34.70466 34.60923 27925 ft 441 kts 337°
2026-04-30 11:57 34.73303 34.59555 28347 ft 440 kts 337°
2026-04-30 11:57 34.76152 34.58181 28762 ft 439 kts 336°
2026-04-30 11:58 34.78985 34.56812 29177 ft 437 kts 336°
2026-04-30 11:58 34.81774 34.55462 29597 ft 436 kts 336°
2026-04-30 11:58 34.84591 34.54105 30029 ft 435 kts 336°
2026-04-30 11:58 34.87400 34.52753 30398 ft 434 kts 336°
2026-04-30 11:59 34.90204 34.51399 30753 ft 433 kts 336°
2026-04-30 11:59 34.93015 34.50035 31091 ft 433 kts 336°
2026-04-30 11:59 34.95807 34.48675 31420 ft 433 kts 336°
2026-04-30 11:59 34.98597 34.47315 31764 ft 432 kts 336°
2026-04-30 12:00 35.01388 34.45956 32102 ft 431 kts 336°
2026-04-30 12:00 35.04172 34.44603 32443 ft 430 kts 336°
2026-04-30 12:00 35.06948 34.43254 32771 ft 430 kts 336°
2026-04-30 12:00 35.09687 34.41920 33120 ft 429 kts 336°
2026-04-30 12:01 35.12457 34.40571 33457 ft 428 kts 336°
2026-04-30 12:01 35.15225 34.39223 33791 ft 427 kts 336°
2026-04-30 12:01 35.17989 34.37877 33995 ft 428 kts 336°
2026-04-30 12:01 35.20771 34.36517 34030 ft 434 kts 336°
2026-04-30 12:02 35.26450 34.33734 34027 ft 445 kts 336°
2026-04-30 12:02 35.32221 34.30914 34024 ft 447 kts 336°
2026-04-30 12:03 35.40855 34.26682 34027 ft 448 kts 336°
2026-04-30 12:04 35.46642 34.23842 34027 ft 448 kts 336°
2026-04-30 12:04 35.52427 34.20994 34021 ft 448 kts 336°
2026-04-30 12:05 35.58206 34.18141 34027 ft 448 kts 336°
2026-04-30 12:05 35.63947 34.15314 34026 ft 447 kts 336°
2026-04-30 12:06 35.69720 34.12462 34037 ft 447 kts 336°
2026-04-30 12:06 35.75492 34.09596 34035 ft 447 kts 336°
2026-04-30 12:07 35.81264 34.06733 34035 ft 447 kts 336°
2026-04-30 12:07 35.87002 34.03889 34034 ft 447 kts 336°
2026-04-30 12:08 35.92683 34.00781 34039 ft 445 kts 327°
2026-04-30 12:08 35.97958 33.96790 34036 ft 445 kts 327°
2026-04-30 12:09 36.03240 33.92789 34035 ft 445 kts 327°
2026-04-30 12:09 36.08486 33.88821 34036 ft 445 kts 327°
2026-04-30 12:10 36.13767 33.84824 34034 ft 445 kts 327°
2026-04-30 12:10 36.19052 33.80827 34044 ft 445 kts 327°
2026-04-30 12:11 36.24328 33.76823 34053 ft 444 kts 327°
2026-04-30 12:11 36.29559 33.72840 34055 ft 443 kts 326°
2026-04-30 12:12 36.34808 33.68837 34057 ft 443 kts 327°
2026-04-30 12:12 36.40056 33.64821 34059 ft 443 kts 327°
2026-04-30 12:13 36.45307 33.60799 34069 ft 444 kts 327°
2026-04-30 12:13 36.50517 33.56800 34066 ft 444 kts 327°
2026-04-30 12:14 36.55772 33.52760 34059 ft 443 kts 327°
2026-04-30 12:14 36.61023 33.48732 34059 ft 443 kts 327°
2026-04-30 12:15 36.66269 33.44697 34056 ft 443 kts 327°
2026-04-30 12:15 36.71508 33.40647 34065 ft 443 kts 327°
2026-04-30 12:16 36.76709 33.36622 34063 ft 443 kts 326°
2026-04-30 12:16 36.81950 33.32576 34050 ft 443 kts 326°
2026-04-30 12:17 36.89078 33.25410 34065 ft 438 kts 310°
2026-04-30 12:17 36.93172 33.19825 34063 ft 439 kts 311°
2026-04-30 12:18 36.97312 33.14219 34055 ft 439 kts 311°
2026-04-30 12:18 37.01460 33.08586 34052 ft 441 kts 311°
2026-04-30 12:19 37.05590 33.02937 34057 ft 440 kts 310°
2026-04-30 12:19 37.09723 32.97280 34057 ft 439 kts 310°
2026-04-30 12:20 37.13827 32.91671 34052 ft 440 kts 310°
2026-04-30 12:20 37.17958 32.86007 34063 ft 440 kts 310°
2026-04-30 12:21 37.22074 32.80322 34068 ft 439 kts 310°
2026-04-30 12:21 37.26191 32.74642 34063 ft 439 kts 310°
2026-04-30 12:22 37.30276 32.69020 34069 ft 439 kts 310°
2026-04-30 12:22 37.34386 32.63350 34068 ft 439 kts 310°
2026-04-30 12:23 37.38483 32.57679 34088 ft 438 kts 310°
2026-04-30 12:23 37.42568 32.52010 34087 ft 436 kts 310°
2026-04-30 12:24 37.46607 32.46393 34090 ft 435 kts 310°
2026-04-30 12:24 37.50669 32.40733 34085 ft 435 kts 310°
2026-04-30 12:25 37.54725 32.35083 34085 ft 435 kts 310°
2026-04-30 12:25 37.58772 32.29429 34091 ft 434 kts 309°
2026-04-30 12:26 37.62774 32.23825 34089 ft 433 kts 309°
2026-04-30 12:26 37.66806 32.18168 34088 ft 433 kts 309°
2026-04-30 12:27 37.70837 32.12510 34087 ft 433 kts 309°
2026-04-30 12:27 37.74857 32.06859 34105 ft 433 kts 309°
2026-04-30 12:28 37.78852 32.01227 34104 ft 432 kts 309°
2026-04-30 12:28 37.82854 31.95577 34096 ft 431 kts 309°
2026-04-30 12:29 37.86850 31.89926 34093 ft 431 kts 309°
2026-04-30 12:29 37.90834 31.84277 34084 ft 430 kts 309°
2026-04-30 12:30 37.94797 31.78647 34084 ft 430 kts 309°
2026-04-30 12:30 37.98766 31.72997 34082 ft 429 kts 309°
2026-04-30 12:31 38.02739 31.67350 34070 ft 429 kts 309°
2026-04-30 12:31 38.06706 31.61688 34064 ft 429 kts 309°
2026-04-30 12:32 38.10638 31.56061 34068 ft 428 kts 309°
2026-04-30 12:32 38.14583 31.50412 34073 ft 428 kts 308°
2026-04-30 12:33 38.18529 31.44756 34067 ft 426 kts 308°
2026-04-30 12:33 38.22454 31.39112 34067 ft 426 kts 308°
2026-04-30 12:34 38.26372 31.33470 34063 ft 425 kts 308°
2026-04-30 12:34 38.30254 31.27871 34040 ft 426 kts 308°
2026-04-30 12:35 38.34177 31.22215 34046 ft 425 kts 308°
2026-04-30 12:35 38.38088 31.16573 34046 ft 425 kts 308°
2026-04-30 12:36 38.41991 31.10914 34036 ft 425 kts 308°
2026-04-30 12:36 38.45858 31.05291 34035 ft 424 kts 308°
2026-04-30 12:37 38.50167 31.00122 34030 ft 430 kts 321°
2026-04-30 12:37 38.55086 30.95782 34031 ft 430 kts 321°
2026-04-30 12:38 38.60005 30.91438 34030 ft 430 kts 321°
2026-04-30 12:38 38.64895 30.87110 34041 ft 430 kts 321°
2026-04-30 12:39 38.69803 30.82757 34043 ft 429 kts 321°
2026-04-30 12:39 38.74703 30.78395 34053 ft 429 kts 321°
2026-04-30 12:40 38.79594 30.74039 34046 ft 428 kts 321°
2026-04-30 12:40 38.84482 30.69685 34039 ft 428 kts 323°
2026-04-30 12:41 38.89729 30.66078 34032 ft 432 kts 329°
2026-04-30 12:41 38.95091 30.62595 34029 ft 432 kts 329°
2026-04-30 12:42 39.00442 30.59112 34029 ft 431 kts 329°
2026-04-30 12:42 39.05799 30.55622 34027 ft 431 kts 329°
2026-04-30 12:43 39.11150 30.52119 34023 ft 431 kts 329°
2026-04-30 12:43 39.16463 30.48649 34018 ft 431 kts 329°
2026-04-30 12:44 39.21814 30.45142 34036 ft 431 kts 328°
2026-04-30 12:44 39.27165 30.41625 34029 ft 431 kts 328°
2026-04-30 12:45 39.32503 30.38113 34028 ft 431 kts 328°
2026-04-30 12:45 39.36944 30.35187 34020 ft 431 kts 328°
2026-04-30 12:46 39.42279 30.31662 34017 ft 431 kts 328°
2026-04-30 12:46 39.48479 30.27560 34036 ft 431 kts 328°
2026-04-30 12:47 39.52980 30.24763 34032 ft 433 kts 332°
2026-04-30 12:47 39.58567 30.21812 34023 ft 434 kts 334°
2026-04-30 12:48 39.64192 30.18978 34030 ft 433 kts 333°
2026-04-30 12:48 39.69777 30.16063 34046 ft 433 kts 333°
2026-04-30 12:49 39.75300 30.13086 34033 ft 432 kts 332°
2026-04-30 12:49 39.80848 30.10075 34043 ft 432 kts 332°
2026-04-30 12:50 39.86405 30.07082 34034 ft 432 kts 332°
2026-04-30 12:50 39.91959 30.04102 34026 ft 432 kts 332°
2026-04-30 12:51 39.97478 30.01133 34042 ft 431 kts 332°
2026-04-30 12:51 40.03023 29.98138 34037 ft 431 kts 332°
2026-04-30 12:52 40.08564 29.95136 34036 ft 431 kts 332°
2026-04-30 12:52 40.14103 29.92126 34036 ft 431 kts 332°
2026-04-30 12:53 40.19643 29.89119 34059 ft 431 kts 332°
2026-04-30 12:53 40.25131 29.86131 34051 ft 430 kts 332°
2026-04-30 12:54 40.30662 29.83110 34046 ft 430 kts 332°
2026-04-30 12:54 40.36182 29.80100 34044 ft 430 kts 332°
2026-04-30 12:55 40.41698 29.77081 34058 ft 429 kts 332°
2026-04-30 12:55 40.47210 29.74058 34062 ft 429 kts 332°
2026-04-30 12:56 40.52681 29.71058 34072 ft 429 kts 332°
2026-04-30 12:56 40.58183 29.68039 34073 ft 428 kts 332°
2026-04-30 12:57 40.63681 29.65007 34097 ft 428 kts 331°
2026-04-30 12:57 40.68676 29.60994 34091 ft 417 kts 316°
2026-04-30 12:58 40.73207 29.56210 34100 ft 417 kts 316°
2026-04-30 12:58 40.77706 29.51464 34105 ft 417 kts 316°
2026-04-30 12:59 40.82230 29.46688 34099 ft 416 kts 316°
2026-04-30 12:59 40.86747 29.41918 34096 ft 416 kts 316°
2026-04-30 13:00 40.91265 29.37133 34091 ft 416 kts 316°
2026-04-30 13:00 40.95790 29.32336 34089 ft 416 kts 316°
2026-04-30 13:01 41.00270 29.27578 34094 ft 416 kts 316°
2026-04-30 13:01 41.04777 29.22774 34109 ft 415 kts 316°
2026-04-30 13:02 41.09271 29.17969 34111 ft 415 kts 316°
2026-04-30 13:02 41.13410 29.12755 34122 ft 407 kts 303°
2026-04-30 13:03 41.16572 29.06572 34142 ft 404 kts 300°
2026-04-30 13:03 41.19357 29.01008 34134 ft 403 kts 300°
2026-04-30 13:04 41.22462 28.94812 34140 ft 403 kts 300°
2026-04-30 13:04 41.25387 28.88953 34139 ft 402 kts 300°
2026-04-30 13:05 41.28470 28.82761 34127 ft 401 kts 300°
2026-04-30 13:06 41.32085 28.75459 34134 ft 401 kts 299°
2026-04-30 13:06 41.35128 28.69316 34134 ft 400 kts 299°
2026-04-30 13:07 41.38132 28.63268 34125 ft 399 kts 299°
2026-04-30 13:07 41.41184 28.57094 34127 ft 399 kts 299°
2026-04-30 13:08 41.44225 28.50920 34123 ft 399 kts 299°
2026-04-30 13:08 41.47100 28.45053 34138 ft 398 kts 299°
2026-04-30 13:09 41.50135 28.38884 34139 ft 397 kts 299°
2026-04-30 13:09 41.53104 28.32843 34139 ft 397 kts 299°
2026-04-30 13:10 41.56118 28.26681 34140 ft 396 kts 299°
2026-04-30 13:10 41.59034 28.20707 34170 ft 396 kts 298°
2026-04-30 13:11 41.62030 28.14554 34156 ft 395 kts 298°
2026-04-30 13:11 41.65015 28.08406 34156 ft 394 kts 298°
2026-04-30 13:12 41.67989 28.02273 34147 ft 393 kts 298°
2026-04-30 13:12 41.70944 27.96164 34143 ft 393 kts 298°
2026-04-30 13:13 41.75395 27.86960 34139 ft 393 kts 298°
2026-04-30 13:14 41.79836 27.77739 34132 ft 393 kts 298°
2026-04-30 13:14 41.84263 27.68523 34146 ft 392 kts 298°
2026-04-30 13:15 41.88647 27.59334 34132 ft 391 kts 298°
2026-04-30 13:16 41.91590 27.53176 34131 ft 391 kts 298°
2026-04-30 13:16 41.94526 27.47025 34139 ft 391 kts 298°
2026-04-30 13:17 41.98895 27.37824 34163 ft 391 kts 297°
2026-04-30 13:18 42.03263 27.28594 34149 ft 390 kts 297°
2026-04-30 13:18 42.07428 27.19229 34168 ft 386 kts 292°
2026-04-30 13:19 42.09784 27.12749 34159 ft 386 kts 293°
2026-04-30 13:19 42.12348 27.06398 34150 ft 386 kts 295°
2026-04-30 13:20 42.14999 27.00163 34143 ft 386 kts 295°
2026-04-30 13:20 42.17641 26.93877 34142 ft 385 kts 295°
2026-04-30 13:21 42.20247 26.87567 34165 ft 384 kts 295°
2026-04-30 13:22 42.24131 26.78120 34158 ft 384 kts 295°
2026-04-30 13:22 42.27979 26.68719 34162 ft 383 kts 295°
2026-04-30 13:23 42.31828 26.59306 34196 ft 380 kts 294°
2026-04-30 13:24 42.36706 26.47331 34191 ft 378 kts 295°
2026-04-30 13:25 42.41735 26.34912 34189 ft 373 kts 295°
2026-04-30 13:26 42.47886 26.19687 34204 ft 371 kts 295°
2026-04-30 13:27 42.50221 26.13893 35418 ft 338 kts 294°
2026-04-30 13:28 42.53653 26.05111 34251 ft 370 kts 294°
2026-04-30 13:28 42.55960 25.99462 35007 ft 324 kts 294°
2026-04-30 13:28 42.57070 25.96750 34386 ft 332 kts 294°
2026-04-30 13:29 42.59255 25.91292 34841 ft 321 kts 293°
2026-04-30 13:29 42.61270 25.86167 34190 ft 344 kts 294°
2026-04-30 13:30 42.64792 25.77318 34187 ft 359 kts 294°
2026-04-30 13:31 42.67082 25.71603 34197 ft 330 kts 294°
2026-04-30 13:31 42.70138 25.63920 34212 ft 290 kts 292°
2026-04-30 13:32 42.72013 25.59150 34212 ft 290 kts 292°
2026-04-30 13:32 42.73958 25.54158 34218 ft 306 kts 292°
2026-04-30 13:33 42.75999 25.48929 34218 ft 320 kts 292°
2026-04-30 13:33 42.78127 25.43507 34219 ft 334 kts 293°
2026-04-30 13:34 42.79232 25.40690 34220 ft 342 kts 293°
2026-04-30 13:34 42.82708 25.31835 34218 ft 363 kts 293°
2026-04-30 13:35 42.83899 25.28789 34224 ft 366 kts 293°
2026-04-30 13:36 42.88661 25.16557 34233 ft 367 kts 293°
2026-04-30 13:36 42.92246 25.07326 34245 ft 367 kts 293°
2026-04-30 13:37 42.95811 24.98090 34255 ft 367 kts 293°
2026-04-30 13:38 42.99359 24.88861 34288 ft 368 kts 292°
2026-04-30 13:39 43.04126 24.76448 34282 ft 370 kts 292°
2026-04-30 13:40 43.07701 24.67109 34290 ft 369 kts 292°
2026-04-30 13:40 43.10059 24.60915 34282 ft 370 kts 292°
2026-04-30 13:41 43.12437 24.54661 34279 ft 371 kts 292°
2026-04-30 13:41 43.14817 24.48395 34289 ft 371 kts 292°
2026-04-30 13:42 43.17196 24.42124 34284 ft 371 kts 292°
2026-04-30 13:42 43.20744 24.32723 34298 ft 373 kts 292°
2026-04-30 13:43 43.23123 24.26399 34283 ft 374 kts 292°
2026-04-30 13:43 43.25506 24.20055 34285 ft 375 kts 292°
2026-04-30 13:44 43.27896 24.13691 34295 ft 375 kts 292°
2026-04-30 13:44 43.30274 24.07312 34295 ft 376 kts 292°
2026-04-30 13:45 43.33845 23.97751 34281 ft 378 kts 292°
2026-04-30 13:46 43.36237 23.91321 34290 ft 378 kts 292°
2026-04-30 13:46 43.38630 23.84873 34291 ft 379 kts 292°
2026-04-30 13:47 43.41027 23.78412 34303 ft 380 kts 291°
2026-04-30 13:47 43.43409 23.71962 34291 ft 381 kts 291°
2026-04-30 13:48 43.45809 23.65447 34321 ft 383 kts 291°
2026-04-30 13:48 43.48219 23.58894 34297 ft 384 kts 292°
2026-04-30 13:49 43.50629 23.52313 34296 ft 386 kts 291°
2026-04-30 13:49 43.53034 23.45745 34294 ft 388 kts 292°
2026-04-30 13:50 43.55475 23.39047 34436 ft 395 kts 292°
2026-04-30 13:50 43.57946 23.32266 34909 ft 396 kts 292°
2026-04-30 13:50 43.59186 23.28864 35152 ft 397 kts 293°
2026-04-30 13:51 43.60427 23.25460 35381 ft 398 kts 293°
2026-04-30 13:51 43.61668 23.22043 35600 ft 399 kts 293°
2026-04-30 13:51 43.62910 23.18614 35813 ft 400 kts 293°
2026-04-30 13:51 43.64135 23.15220 35971 ft 402 kts 293°
2026-04-30 13:52 43.65384 23.11759 36168 ft 403 kts 294°
2026-04-30 13:52 43.66635 23.08289 36295 ft 405 kts 294°
2026-04-30 13:52 43.69143 23.01330 36312 ft 405 kts 294°
2026-04-30 13:53 43.71653 22.94355 36310 ft 405 kts 294°
2026-04-30 13:53 43.74134 22.87421 36310 ft 406 kts 294°
2026-04-30 13:54 43.76639 22.80408 36310 ft 408 kts 294°
2026-04-30 13:54 43.79149 22.73370 36315 ft 408 kts 294°
2026-04-30 13:55 43.81663 22.66311 36317 ft 409 kts 294°
2026-04-30 13:55 43.84152 22.59296 36319 ft 408 kts 294°
2026-04-30 13:56 43.86650 22.52222 36309 ft 409 kts 294°
2026-04-30 13:56 43.89152 22.45127 36306 ft 410 kts 294°
2026-04-30 13:57 43.91866 22.38167 36307 ft 413 kts 303°
2026-04-30 13:57 43.95486 22.31924 36323 ft 415 kts 306°
2026-04-30 13:58 44.00900 22.22587 36308 ft 416 kts 306°
2026-04-30 13:59 44.04518 22.16302 36308 ft 417 kts 306°
2026-04-30 13:59 44.08137 22.10016 36310 ft 417 kts 306°
2026-04-30 14:00 44.11738 22.03757 36307 ft 416 kts 306°
2026-04-30 14:00 44.17158 21.94305 36296 ft 416 kts 306°
2026-04-30 14:01 44.20768 21.87994 36287 ft 417 kts 306°
2026-04-30 14:01 44.24380 21.81672 36303 ft 417 kts 306°
2026-04-30 14:02 44.27994 21.75333 36285 ft 417 kts 306°
2026-04-30 14:02 44.31449 21.69256 36267 ft 418 kts 306°
2026-04-30 14:03 44.35056 21.62885 36261 ft 418 kts 306°
2026-04-30 14:03 44.38659 21.56507 36258 ft 418 kts 306°
2026-04-30 14:04 44.42274 21.50121 36261 ft 419 kts 306°
2026-04-30 14:04 44.45879 21.43726 36253 ft 419 kts 307°
2026-04-30 14:05 44.49460 21.37344 36247 ft 420 kts 307°
2026-04-30 14:05 44.53067 21.30911 36253 ft 420 kts 307°
2026-04-30 14:06 44.58489 21.21232 36267 ft 421 kts 307°
2026-04-30 14:07 44.63899 21.11502 36258 ft 422 kts 307°
2026-04-30 14:08 44.69242 21.01708 36269 ft 423 kts 306°
2026-04-30 14:08 44.74598 20.91846 36273 ft 423 kts 306°
2026-04-30 14:09 44.78165 20.85266 36270 ft 423 kts 307°
2026-04-30 14:10 44.83504 20.75418 36280 ft 424 kts 307°
2026-04-30 14:10 44.87087 20.68791 36282 ft 425 kts 307°
2026-04-30 14:11 44.90661 20.62146 36298 ft 424 kts 307°
2026-04-30 14:11 44.94221 20.55509 36292 ft 424 kts 307°
2026-04-30 14:12 44.97784 20.48859 36299 ft 425 kts 307°
2026-04-30 14:12 45.01328 20.42242 36294 ft 425 kts 307°
2026-04-30 14:13 45.04893 20.35562 36294 ft 426 kts 307°
2026-04-30 14:13 45.08452 20.28874 36294 ft 426 kts 307°
2026-04-30 14:14 45.12007 20.22169 36295 ft 426 kts 307°
2026-04-30 14:14 45.15538 20.15497 36307 ft 426 kts 307°
2026-04-30 14:15 45.19024 20.08905 36320 ft 426 kts 307°
2026-04-30 14:15 45.22576 20.02174 36312 ft 426 kts 307°
2026-04-30 14:16 45.26118 19.95431 36317 ft 426 kts 307°
2026-04-30 14:16 45.29656 19.88674 36316 ft 427 kts 307°
2026-04-30 14:17 45.33176 19.81954 36318 ft 427 kts 307°
2026-04-30 14:17 45.36716 19.75182 36317 ft 427 kts 307°
2026-04-30 14:18 45.40247 19.68395 36303 ft 427 kts 307°
2026-04-30 14:18 45.45550 19.58217 36309 ft 426 kts 307°
2026-04-30 14:19 45.50804 19.48056 36326 ft 427 kts 307°
2026-04-30 14:20 45.54762 19.41786 36325 ft 426 kts 319°
2026-04-30 14:20 45.61390 19.33434 36325 ft 426 kts 319°
2026-04-30 14:21 45.65800 19.27840 36330 ft 427 kts 319°